When you browse on this site, cookies collect data to enhance your experience and personalize the content and advertising you see.
Visit our Privacy Policy to learn more. By continuing to use the site, you agree to this use of cookies and data.
  • In Portugal
  • List of Countries
  • For 7 days
  • Water Temperature
  • Satellite Maps
  • Weather Map
  • Weather Widgets
  • user-avatar
    Login

    Hourly Weather Baku

    Today, 20 March, Wednesday

    Time Temperature Precipitation Wind Pressure Humidity
    00:00 +3°C° 0.6 mm 10 mps 767 mmHg 81%
    01:00 +3°C° 0.7 mm 10 mps 767 mmHg 81%
    02:00 +3°C° 0.7 mm 10 mps 767 mmHg 81%
    03:00 +3°C° 0.7 mm 10 mps 766 mmHg 81%
    04:00 +3°C° 0.6 mm 10 mps 766 mmHg 81%
    05:00 +3°C° 0.6 mm 9 mps 766 mmHg 81%
    06:00 +3°C° 0.6 mm 9 mps 766 mmHg 81%
    07:00 +3°C° 0.4 mm 9 mps 766 mmHg 81%
    08:00 +3°C° 0.4 mm 9 mps 766 mmHg 80%
    09:00 +3°C° 0.4 mm 9 mps 767 mmHg 79%
    10:00 +5°C° 0.2 mm 9 mps 767 mmHg 78%
    11:00 +5°C° 0.2 mm 9 mps 767 mmHg 77%
    12:00 +5°C° 0.2 mm 8 mps 766 mmHg 76%
    13:00 +5°C° 0.1 mm 8 mps 766 mmHg 76%
    14:00 +5°C° 0.1 mm 8 mps 766 mmHg 76%
    15:00 +5°C° 0.1 mm 8 mps 766 mmHg 76%
    16:00 +5°C° 0.1 mm 7 mps 766 mmHg 77%
    17:00 +5°C° 0.1 mm 7 mps 766 mmHg 79%
    18:00 +5°C° 0.1 mm 7 mps 766 mmHg 80%
    19:00 +5°C° 0.5 mm 6 mps 766 mmHg 81%
    20:00 +5°C° 0.5 mm 6 mps 766 mmHg 82%
    21:00 +6°C° 0.5 mm 5 mps 767 mmHg 83%
    22:00 +6°C° 0.7 mm 5 mps 766 mmHg 83%
    23:00 +6°C° 0.7 mm 4 mps 766 mmHg 83%

    Tomorrow, 21 March, Thursday

    Time Temperature Precipitation Wind Pressure Humidity
    00:00 +6°C° 0.7 mm 4 mps 766 mmHg 83%
    01:00 +6°C° 0.4 mm 4 mps 766 mmHg 84%
    02:00 +7°C° 0.4 mm 3 mps 766 mmHg 84%
    03:00 +7°C° 0.4 mm 3 mps 766 mmHg 85%
    04:00 +7°C° 0.2 mm 3 mps 766 mmHg 85%
    05:00 +7°C° 0.2 mm 2 mps 766 mmHg 85%
    06:00 +7°C° 0.2 mm 2 mps 766 mmHg 86%
    07:00 +7°C° 0.2 mm 2 mps 766 mmHg 85%
    08:00 +7°C° 0.2 mm 2 mps 766 mmHg 84%
    09:00 +7°C° 0.2 mm 2 mps 767 mmHg 83%
    10:00 +9°C° 0.1 mm 1 mps 767 mmHg 80%
    11:00 +9°C° 0.1 mm 1 mps 767 mmHg 78%
    12:00 +10°C° 0.1 mm 1 mps 767 mmHg 76%
    13:00 +10°C° 0 mm 1 mps 766 mmHg 73%
    14:00 +10°C° 0 mm 1 mps 766 mmHg 71%
    15:00 +11°C° 0 mm 1 mps 766 mmHg 69%
    16:00 +10°C° 0 mm 2 mps 766 mmHg 70%
    17:00 +9°C° 0 mm 2 mps 766 mmHg 71%
    18:00 +9°C° 0 mm 2 mps 766 mmHg 72%
    19:00 +9°C° 0 mm 2 mps 766 mmHg 73%
    20:00 +8°C° 0 mm 2 mps 766 mmHg 75%
    21:00 +9°C° 0 mm 1 mps 766 mmHg 76%
    22:00 +9°C° 0 mm 1 mps 766 mmHg 77%
    23:00 +9°C° 0 mm 1 mps 766 mmHg 78%

    Day after tomorrow, 22 March, Friday

    Time Temperature Precipitation Wind Pressure Humidity
    00:00 +9°C° 0 mm 1 mps 766 mmHg 79%
    01:00 +8°C° 0 mm 2 mps 766 mmHg 82%
    02:00 +8°C° 0 mm 2 mps 765 mmHg 84%
    03:00 +8°C° 0 mm 2 mps 765 mmHg 87%
    04:00 +8°C° 0 mm 2 mps 765 mmHg 87%
    05:00 +8°C° 0 mm 2 mps 765 mmHg 88%
    06:00 +8°C° 0 mm 2 mps 766 mmHg 88%
    07:00 +9°C° 0 mm 2 mps 766 mmHg 83%
    08:00 +10°C° 0 mm 2 mps 766 mmHg 77%
    09:00 +12°C° 0 mm 2 mps 766 mmHg 72%
    10:00 +12°C° 0 mm 2 mps 766 mmHg 69%
    11:00 +13°C° 0 mm 2 mps 766 mmHg 66%
    12:00 +14°C° 0 mm 2 mps 766 mmHg 62%
    13:00 +14°C° 0 mm 2 mps 765 mmHg 62%
    14:00 +13°C° 0 mm 3 mps 765 mmHg 62%
    15:00 +13°C° 0 mm 3 mps 765 mmHg 61%
    16:00 +13°C° 0 mm 3 mps 765 mmHg 65%
    17:00 +13°C° 0 mm 2 mps 765 mmHg 68%
    18:00 +13°C° 0 mm 2 mps 765 mmHg 72%
    19:00 +12°C° 0 mm 2 mps 765 mmHg 70%
    20:00 +12°C° 0 mm 2 mps 766 mmHg 67%
    21:00 +11°C° 0 mm 3 mps 766 mmHg 65%
    22:00 +10°C° 0.1 mm 4 mps 766 mmHg 70%
    23:00 +9°C° 0.1 mm 6 mps 766 mmHg 74%

    23 March, Saturday

    Time Temperature Precipitation Wind Pressure Humidity
    00:00 +8°C° 0.1 mm 7 mps 766 mmHg 79%
    01:00 +8°C° 0.2 mm 7 mps 766 mmHg 78%
    02:00 +7°C° 0.2 mm 8 mps 766 mmHg 77%
    03:00 +6°C° 0.2 mm 8 mps 767 mmHg 77%
    04:00 +6°C° 0 mm 7 mps 767 mmHg 77%
    05:00 +7°C° 0 mm 6 mps 767 mmHg 78%
    06:00 +7°C° 0 mm 5 mps 767 mmHg 79%
    07:00 +8°C° 0 mm 4 mps 768 mmHg 75%
    08:00 +9°C° 0 mm 3 mps 768 mmHg 71%
    09:00 +9°C° 0 mm 2 mps 768 mmHg 67%
    10:00 +10°C° 0 mm 2 mps 768 mmHg 62%
    11:00 +12°C° 0 mm 2 mps 767 mmHg 57%
    12:00 +13°C° 0 mm 2 mps 767 mmHg 52%
    13:00 +12°C° 0 mm 4 mps 766 mmHg 53%
    14:00 +12°C° 0 mm 5 mps 765 mmHg 54%
    15:00 +11°C° 0 mm 6 mps 764 mmHg 55%
    16:00 +11°C° 0 mm 7 mps 764 mmHg 60%
    17:00 +10°C° 0 mm 7 mps 764 mmHg 66%
    18:00 +10°C° 0 mm 7 mps 763 mmHg 71%
    19:00 +10°C° 0 mm 8 mps 763 mmHg 74%
    20:00 +10°C° 0 mm 8 mps 763 mmHg 77%
    21:00 +10°C° 0 mm 8 mps 763 mmHg 79%
    22:00 +9°C° 0 mm 8 mps 763 mmHg 79%
    23:00 +9°C° 0 mm 8 mps 763 mmHg 80%

    24 March, Sunday

    Time Temperature Precipitation Wind Pressure Humidity
    00:00 +9°C° 0 mm 8 mps 762 mmHg 80%
    01:00 +9°C° 0 mm 7 mps 762 mmHg 78%
    02:00 +8°C° 0 mm 6 mps 763 mmHg 76%
    03:00 +8°C° 0 mm 5 mps 763 mmHg 75%
    04:00 +8°C° 0 mm 6 mps 763 mmHg 78%
    05:00 +6°C° 0 mm 8 mps 763 mmHg 82%
    06:00 +6°C° 0 mm 9 mps 764 mmHg 85%
    07:00 +7°C° 0 mm 9 mps 765 mmHg 78%
    08:00 +7°C° 0 mm 8 mps 765 mmHg 71%
    09:00 +9°C° 0 mm 8 mps 766 mmHg 64%
    10:00 +10°C° 0 mm 7 mps 766 mmHg 61%
    11:00 +10°C° 0 mm 6 mps 766 mmHg 58%
    12:00 +12°C° 0 mm 5 mps 766 mmHg 54%
    13:00 +12°C° 0 mm 4 mps 766 mmHg 54%
    14:00 +12°C° 0 mm 4 mps 766 mmHg 54%
    15:00 +12°C° 0 mm 3 mps 765 mmHg 54%
    16:00 +11°C° 0 mm 3 mps 765 mmHg 54%
    17:00 +11°C° 0 mm 3 mps 765 mmHg 55%
    18:00 +11°C° 0 mm 4 mps 765 mmHg 55%
    19:00 +11°C° 0 mm 4 mps 765 mmHg 58%
    20:00 +9°C° 0 mm 5 mps 766 mmHg 60%
    21:00 +9°C° 0 mm 5 mps 766 mmHg 63%
    22:00 +9°C° 0 mm 5 mps 765 mmHg 65%
    23:00 +9°C° 0 mm 5 mps 765 mmHg 68%

    25 March, Monday

    Time Temperature Precipitation Wind Pressure Humidity
    00:00 +9°C° 0 mm 5 mps 765 mmHg 70%
    01:00 +9°C° 0 mm 5 mps 764 mmHg 73%
    02:00 +9°C° 0 mm 5 mps 764 mmHg 77%
    03:00 +8°C° 0 mm 5 mps 764 mmHg 80%
    04:00 +8°C° 0 mm 5 mps 764 mmHg 83%
    05:00 +8°C° 0 mm 5 mps 764 mmHg 86%
    06:00 +8°C° 0 mm 5 mps 764 mmHg 89%
    07:00 +9°C° 0 mm 6 mps 764 mmHg 84%
    08:00 +10°C° 0 mm 6 mps 764 mmHg 79%
    09:00 +11°C° 0 mm 7 mps 764 mmHg 74%
    10:00 +12°C° 0 mm 7 mps 764 mmHg 68%
    11:00 +14°C° 0 mm 7 mps 764 mmHg 61%
    12:00 +15°C° 0 mm 7 mps 764 mmHg 55%
    13:00 +15°C° 0 mm 7 mps 763 mmHg 56%
    14:00 +15°C° 0 mm 7 mps 763 mmHg 56%
    15:00 +15°C° 0 mm 7 mps 762 mmHg 56%
    16:00 +14°C° 0 mm 7 mps 763 mmHg 61%
    17:00 +13°C° 0 mm 6 mps 763 mmHg 66%
    18:00 +11°C° 0 mm 6 mps 763 mmHg 72%
    19:00 +12°C° 0 mm 5 mps 763 mmHg 74%
    20:00 +12°C° 0 mm 5 mps 763 mmHg 77%
    21:00 +10°C° 0 mm 5 mps 764 mmHg 80%
    22:00 +11°C° 0 mm 4 mps 763 mmHg 82%
    23:00 +11°C° 0 mm 4 mps 763 mmHg 84%
    Show more